Temp
-5 -5 -5 -5 -5 -5 -5 -5 -5 -6 -6 -5 -5 -5 -5 -5 -5 -5 -5 -4 -4 -4 -4 -4 -3 -3 -2
-5 -5 -6 -6 -6 -6 -6 -6 -6 -6 -6 -6 -6 -6 -6 -5 -5 -5 -4 -4 -4 -4 -4 -4 -4 -3 -3
-6 -6 -6 -6 -6 -7 -7 -7 -7 -7 -7 -6 -6 -6 -6 -6 -6 -5 -5 -5 -4 -5 -5 -4 -4 -4 -4
-7 -7 -7 -7 -7 -7 -7 -8 -8 -8 -8 -7 -7 -7 -6 -6 -6 -6 -6 -6 -6 -5 -5 -5 -4 -4 -4
-7 -7 -7 -8 -8 -8 -8 -8 -8 -8 -8 -8 -7 -7 -7 -6 -6 -6 -6 -6 -6 -6 -5 -5 -5 -5 -4
-8 -8 -8 -9 -9 -9 -9 -8 -8 -8 -8 -8 -8 -8 -7 -7 -7 -7 -6 -6 -6 -6 -6 -6 -6 -6 -5
-9 -9 -9 -10 -9 -9 -9 -9 -9 -9 -8 -8 -8 -8 -8 -8 -8 -8 -7 -7 -7 -7 -7 -7 -7 -7 -6
-9 -9 -9 -10 -10 -10 -9 -9 -9 -9 -9 -8 -8 -8 -8 -8 -8 -8 -8 -8 -8 -8 -8 -8 -8 -8 -8
-10 -10 -10 -10 -11 -10 -10 -10 -9 -9 -9 -9 -9 -8 -8 -8 -9 -9 -9 -9 -9 -9 -9 -10 -10 -10 -9
-11 -10 -11 -11 -11 -11 -11 -10 -10 -9 -10 -10 -9 -9 -8 -8 -9 -9 -9 -10 -10 -10 -11 -11 -11 -10 -10
-11 -11 -11 -12 -12 -11 -11 -11 -10 -10 -10 -10 -9 -10 -9 -8 -9 -9 -10 -10 -10 -11 -12 -12 -12 -12 -12
-11 -11 -11 -12 -11 -11 -11 -11 -11 -11 -11 -11 -10 -10 -10 -9 -9 -10 -10 -10 -11 -12 -12 -13 -13 -13 -13
-11 -11 -12 -12 -11 -11 -12 -12 -11 -11 -12 -11 -11 -10 -10 -10 -10 -10 -10 -11 -12 -13 -13 -13 -13 -14 -14
-12 -11 -12 -12 -12 -12 -11 -12 -11 -12 -12 -12 -11 -11 -11 -11 -11 -11 -11 -12 -12 -13 -14 -14 -14 -14 -14
-12 -12 -12 -12 -12 -12 -12 -12 -11 -12 -12 -12 -12 -11 -11 -11 -11 -12 -12 -12 -14 -15 -15 -15 -15 -15 -15
-12 -12 -12 -12 -12 -12 -12 -12 -11 -12 -12 -12 -12 -12 -12 -12 -12 -12 -12 -13 -14 -15 -16 -15 -15 -16 -16
-12 -12 -12 -12 -12 -12 -12 -12 -12 -12 -12 -12 -12 -12 -12 -11 -13 -13 -13 -14 -15 -15 -16 -16 -16 -16 -17
Height
3019 3013 3009 3004 3002 2999 2996 2995 2993 2991 2989 2987 2986 2986 2986 2985 2985 2985 2985 2985 2986 2988 2990 2991 2992 2992 2992
3011 3007 3002 2997 2994 2991 2988 2985 2984 2982 2982 2979 2978 2976 2976 2976 2977 2976 2976 2977 2977 2978 2979 2980 2981 2980 2981
3001 2998 2994 2989 2986 2982 2980 2977 2975 2974 2972 2971 2970 2969 2968 2967 2966 2966 2966 2966 2966 2966 2968 2970 2971 2972 2975
2991 2989 2985 2981 2976 2973 2972 2968 2968 2965 2964 2963 2962 2960 2959 2959 2959 2958 2957 2957 2957 2957 2956 2957 2958 2960 2963
2983 2980 2976 2972 2966 2963 2961 2959 2960 2958 2956 2954 2953 2952 2950 2949 2949 2948 2948 2948 2948 2947 2947 2947 2948 2949 2950
2973 2970 2966 2963 2957 2954 2951 2950 2950 2949 2947 2947 2944 2944 2942 2942 2941 2940 2939 2938 2937 2937 2936 2936 2935 2935 2935
2963 2961 2956 2952 2948 2945 2942 2941 2940 2939 2936 2938 2935 2934 2933 2933 2931 2930 2929 2928 2927 2926 2925 2924 2923 2922 2921
2951 2948 2945 2941 2937 2933 2933 2931 2932 2931 2927 2926 2925 2924 2924 2924 2922 2920 2918 2916 2914 2912 2911 2909 2908 2907 2907
2943 2939 2935 2932 2928 2924 2924 2921 2922 2922 2919 2915 2917 2915 2915 2915 2913 2911 2908 2906 2904 2901 2899 2896 2893 2890 2890
2933 2929 2924 2922 2919 2915 2914 2913 2912 2912 2911 2906 2907 2905 2903 2906 2905 2902 2899 2896 2893 2889 2886 2883 2879 2875 2874
2923 2919 2915 2911 2909 2906 2905 2903 2902 2902 2901 2896 2898 2896 2892 2889 2893 2891 2888 2887 2882 2878 2874 2869 2865 2861 2859
2911 2908 2905 2903 2900 2898 2896 2894 2893 2892 2892 2888 2887 2885 2882 2879 2878 2879 2875 2872 2867 2864 2860 2856 2852 2848 2845
2899 2898 2895 2893 2891 2890 2888 2886 2884 2883 2882 2880 2877 2874 2871 2869 2866 2865 2862 2860 2856 2850 2847 2842 2839 2836 2833
2889 2887 2885 2884 2883 2881 2880 2877 2875 2876 2873 2871 2867 2863 2860 2859 2856 2854 2852 2845 2843 2838 2832 2828 2825 2823 2820
2879 2877 2876 2875 2874 2872 2870 2868 2866 2866 2866 2863 2859 2855 2851 2847 2845 2844 2839 2834 2830 2823 2817 2811 2809 2807 2805
2870 2868 2867 2866 2865 2863 2861 2859 2857 2856 2855 2854 2851 2847 2842 2839 2837 2831 2827 2821 2816 2808 2804 2796 2792 2792 2789
2861 2859 2858 2857 2855 2854 2852 2849 2848 2846 2845 2843 2840 2835 2829 2825 2826 2825 2815 2809 2802 2795 2790 2784 2777 2776 2773
Wind_Speed
29 32 33 34 33 33 33 32 30 30 30 29 30 29 27 27 27 27 28 28 28 28 28 29 29 30 31
30 32 33 35 35 34 33 32 30 30 30 29 29 30 30 29 29 30 31 31 32 33 32 32 29 29 28
32 33 33 35 36 35 34 32 31 29 30 30 29 30 30 30 30 31 32 32 33 33 32 32 31 31 31
35 34 35 35 37 36 33 32 29 29 30 29 30 31 31 31 31 31 32 33 33 34 36 36 38 39 40
36 36 37 37 37 35 34 31 28 29 29 29 30 30 31 31 31 30 31 31 32 34 35 37 40 43 46
37 38 38 36 37 36 33 31 28 28 30 28 30 28 29 28 29 29 30 31 31 33 35 38 40 44 46
39 38 39 36 35 34 32 30 28 27 31 26 28 27 28 26 27 27 28 29 31 33 35 37 39 42 46
40 40 40 36 35 36 32 30 27 25 29 28 27 27 25 25 28 29 30 32 34 36 38 40 42 43 44
41 41 39 37 35 37 31 30 27 25 26 30 26 26 26 26 28 30 31 32 36 38 40 42 44 46 47
40 40 38 34 34 36 33 31 29 26 24 30 26 28 31 27 25 26 29 32 36 39 42 43 44 46 47
38 36 36 30 34 35 33 32 31 28 26 30 26 28 32 33 26 25 30 32 36 38 40 42 42 44 46
37 34 34 29 33 32 31 31 31 30 27 29 31 31 35 35 35 33 35 37 39 39 40 41 42 42 43
36 34 30 30 31 30 30 31 31 30 29 29 31 34 37 39 39 37 38 39 40 42 42 42 43 41 40
34 33 30 31 29 30 29 30 31 28 29 30 33 37 40 39 39 38 38 42 42 43 44 45 44 41 39
34 32 30 29 28 28 29 29 31 29 26 28 33 38 41 41 41 38 41 43 41 44 46 48 46 43 41
34 30 29 28 27 27 28 30 30 29 28 28 31 35 38 39 37 39 40 42 42 45 44 47 47 44 43
29 29 27 27 27 26 27 29 30 30 29 30 31 34 39 39 35 31 39 40 42 43 41 42 45 42 42
Wind_Direction
298 300 302 300 297 296 293 290 285 281 279 278 278 276 272 270 269 271 273 274 270 266 261 258 256 254 254
297 300 302 300 298 295 291 287 282 277 276 276 276 275 273 271 271 273 273 272 271 270 269 266 261 257 255
296 299 302 300 296 295 292 287 282 278 275 274 274 274 274 275 276 276 277 277 276 273 269 263 263 260 255
297 301 304 301 297 294 290 287 281 278 276 276 276 276 276 276 275 276 277 277 277 277 278 276 271 267 263
297 302 305 301 297 293 290 284 279 275 274 276 275 275 275 276 278 278 279 280 281 281 280 278 275 273 271
295 301 303 299 295 292 289 284 279 275 273 274 276 274 274 275 276 277 279 280 281 281 281 280 279 278 275
292 301 302 299 292 290 286 282 280 277 275 274 274 275 276 276 276 277 279 279 281 283 283 284 283 282 280
296 304 301 297 295 291 288 283 280 280 281 279 278 277 276 278 283 285 287 288 288 288 289 289 288 286 285
294 298 295 293 289 288 286 283 283 281 281 282 278 276 279 285 287 287 288 289 289 289 290 289 289 288 288
292 297 290 287 286 285 285 284 284 282 283 281 280 285 285 285 286 285 287 289 292 293 292 291 290 290 290
289 291 284 283 282 281 282 283 283 285 288 281 280 287 292 298 304 302 297 297 294 292 292 291 290 290 291
292 289 284 281 279 277 279 281 284 287 286 281 285 289 292 298 304 306 306 303 300 297 293 290 288 288 290
292 288 284 282 279 277 278 279 281 285 284 278 286 292 294 298 304 306 305 301 300 298 294 288 286 285 284
289 285 284 282 277 279 278 279 282 285 281 279 287 291 293 297 300 304 304 301 301 298 291 286 283 280 279
285 282 284 280 279 278 278 279 282 281 270 274 279 283 287 293 297 302 302 301 302 298 292 289 284 281 276
283 283 284 280 279 277 279 281 282 279 273 274 276 280 285 288 297 301 302 303 299 294 291 290 287 283 279
280 283 279 279 279 281 282 283 283 280 277 280 286 288 290 297 299 300 305 303 298 296 296 291 288 286 281